CAPE
2043 2054 1980 1966 2036 2026 2229 2316 2285 2155 1947 1815 1960 1964 1973 2347 2066 2023 1993 1993 2145 2247 2372 2406 2224 2137 2068 2226 2121 2192 2298 2435 2445 2525 2463 2651 2624 2670 2719 2801 3026 3060 3160 3293 3160 3184 3298 3160 3178 3192 2930 3054 3047 2726 2617 2550 2519 2415 2358 2156 2311 2645 2068 1945 2193 2477 2427 1528 1769 2442 2362 1703 986 745 1285 1385 1607 1788 1239 1620 1781 1711 1722 1980 2250
1922 2029 2024 2027 2014 2111 2254 2355 2449 2317 2162 1980 2072 1959 1886 2132 2130 2120 2086 2098 2127 2172 2238 2318 2454 2328 2220 2141 2152 2140 2244 2295 2249 2357 2398 2402 2528 2586 2747 2781 2935 3013 2894 2973 3067 2973 3160 3215 3298 3129 2943 2802 2770 2700 2682 2566 2425 2615 2521 2282 2155 2518 2432 2441 2344 2334 2160 1860 1961 1600 990 968 1036 773 1124 1327 1615 1764 1456 1278 1665 1812 1762 2196 2496
1783 1953 2022 2035 2056 2195 2298 2427 2436 2441 2353 2189 2077 2075 1978 1976 2012 2020 2054 2107 2209 2252 2236 2196 2320 2432 2441 2427 2304 2275 2293 2264 2248 2333 2366 2363 2421 2521 2818 2940 2904 2975 2845 2913 2956 3030 3067 3250 3215 3070 2730 2627 2567 2438 2353 2374 2400 2388 2390 1969 1942 1872 1986 2566 2362 2013 1885 1980 1274 1092 961 720 909 1216 1208 1312 1597 1262 1218 1233 1452 1942 1776 1932 2218
1653 1834 1959 1998 2032 2214 2349 2420 2416 2477 2505 2415 2248 2032 2084 2024 2127 2012 1997 2019 2087 2190 2198 2193 2256 2369 2446 2523 2373 2333 2262 2308 2333 2302 2372 2371 2398 2489 2584 2715 2829 2824 2867 2897 2909 2988 3032 3085 3026 2918 2648 2513 2513 2458 2354 2082 2151 2214 2083 2113 1974 1947 1697 1980 2182 2008 1682 1764 1675 935 843 861 1369 962 1057 1350 1329 1426 1208 1239 1697 2026 1897 1877 1978
1568 1700 1838 1913 1955 2082 2321 2380 2413 2470 2509 2506 2463 2303 2126 2114 2148 2188 2180 2134 2030 1884 2066 2056 2156 2285 2343 2442 2450 2338 2314 2354 2380 2346 2344 2414 2442 2468 2585 2636 2694 2752 2796 2914 3226 3267 3166 3125 3192 2924 2675 2517 2445 2224 2084 1910 1784 1657 1656 1744 1715 1632 2011 2105 2060 1782 1581 1666 1710 840 732 746 891 969 1210 1565 1477 1387 1318 1535 1807 2103 2159 1832 1717
1542 1613 1711 1784 1827 1883 2113 2295 2375 2421 2461 2470 2454 2417 2340 2261 2243 2273 2194 2055 1964 1877 1884 1846 2025 2137 2304 2390 2428 2446 2422 2386 2412 2459 2407 2443 2485 2530 2564 2650 2573 2613 2643 2680 2855 3123 3332 3397 3169 2950 2654 2510 2625 2355 1992 1882 1747 1579 1354 1229 1125 935 726 887 1730 1998 1798 2007 1263 1247 1072 1062 1485 1622 1375 1418 1266 1251 1373 1663 2174 2273 2035 1906 1859
1515 1550 1604 1644 1682 1724 1813 2084 2238 2302 2342 2368 2361 2341 2302 2263 2256 2239 2218 2103 2042 1950 1989 1996 2033 2057 2134 2267 2287 2356 2353 2288 2342 2381 2425 2448 2486 2549 2531 2552 2614 2561 2594 2587 2726 2828 2851 2862 2912 2758 2671 2556 2454 2332 2127 1846 1554 1299 1308 1239 1094 835 816 766 904 1100 1388 1224 1283 1036 1136 1027 968 1750 1912 1268 1223 1224 1372 1959 2453 2339 2121 1878 2037
1477 1503 1539 1568 1563 1560 1608 1780 2012 2130 2209 2283 2319 2325 2244 2128 2106 2130 2118 2075 2079 2014 1907 1942 1979 1941 1949 2071 2281 2328 2278 2217 2226 2264 2298 2324 2331 2444 2534 2604 2640 2767 2704 2796 2748 2778 2795 2710 2642 2507 2395 2339 2168 2018 1797 1696 1584 1421 1420 1313 1168 939 1001 1011 1005 1000 1140 1515 1601 1260 1155 1371 1558 1561 1626 1214 1946 1781 1595 1679 1921 2127 2086 1892 1772
1414 1439 1458 1506 1526 1504 1516 1574 1707 1898 2188 2201 2291 2272 2166 1962 1961 2054 2122 2094 2054 1969 1830 1795 1776 1748 1747 1900 2108 2209 2186 2169 2186 2211 2229 2285 2249 2303 2450 2551 2680 2698 2703 2664 2622 2563 2522 2421 2382 2298 2301 2855 3052 3060 2730 2905 3310 2741 2177 1559 1472 1378 1205 1134 1390 1638 1673 1404 1407 1042 1099 1283 1418 1707 1621 1682 1768 1646 1582 1627 1726 1839 1699 1622 1797
1349 1353 1363 1395 1441 1480 1502 1541 1598 1714 1900 2067 2158 2196 2150 2095 2090 2126 2147 2097 1935 1728 1572 1508 1480 1560 1680 1725 1786 1878 2053 2131 2352 2728 2779 2508 2281 2214 2286 2458 2505 2562 2669 2628 2444 2267 2262 2320 2257 2306 2881 3429 3694 5293 4481 4143 4835 3604 3005 2702 2385 1925 1545 1279 1374 1571 1403 1105 1045 1003 1029 1328 1536 1794 1474 1504 1634 1686 1800 1831 1716 1623 1410 1336 1496
1407 1364 1346 1327 1330 1384 1454 1523 1576 1655 1779 1898 2015 2068 2099 2155 2184 2161 2121 2099 1975 1840 1626 1485 1375 1422 1450 1664 1709 1660 1787 1854 2276 1973 2144 2388 2942 2331 2339 2435 2433 2495 2430 2574 2550 2479 2304 2314 2184 1925 3904 4986 4134 4085 4163 3764 4143 4184 4020 3746 2702 2135 1586 1187 1182 943 1086 1162 1034 816 978 1434 1557 1695 1529 1554 1557 1592 1682 1512 1414 1346 1155 941 1044
1583 1498 1427 1372 1327 1310 1354 1404 1485 1574 1648 1768 1861 1897 1930 1939 1946 1957 1947 1882 1770 1604 1511 1487 1447 1498 1517 1511 1562 1681 1733 1678 1700 1763 1842 1918 2733 3132 2451 2336 2363 2358 2369 2342 2302 2238 2333 2357 2305 3282 2983 2108 1496 1387 2540 3530 2795 3026 2984 3106 3021 2530 1762 1358 1302 1037 884 909 880 1051 1061 1412 1562 1676 1667 1544 1652 1502 1432 1256 1243 1072 976 946 904
1746 1710 1635 1542 1480 1421 1386 1375 1375 1381 1404 1449 1555 1651 1662 1588 1632 1619 1540 1480 1439 1405 1403 1420 1331 1400 1428 1438 1474 1547 1672 1352 1568 1633 1746 1886 1977 2481 2867 2690 2554 2404 2326 2230 2229 2291 2402 2435 2434 2345 2406 3811 2665 941 1537 2456 2611 2359 1960 2256 3360 2926 2376 1976 1836 1599 1479 1231 1116 1140 1248 1690 1847 1913 1595 1495 1333 1180 1244 1288 1278 1077 1010 953 958
1652 1734 1793 1789 1718 1660 1614 1579 1590 1578 1527 1485 1474 1434 1383 1432 1506 1522 1443 1357 1319 1260 1073 1103 1069 1097 1242 1328 1418 1468 1583 1478 1519 1537 1597 1730 1903 2010 2099 2229 2344 2420 2452 2492 2519 2522 2508 2481 2444 2248 1934 1902 1217 1087 1458 1651 1845 2001 1948 1761 2169 2175 1894 2047 2183 2157 2071 2071 2142 2087 1886 1605 1650 1583 1518 1278 1084 1275 1341 1270 1120 1008 879 812 693
1598 1567 1657 1717 1722 1765 1638 1644 1632 1648 1633 1658 1652 1482 1306 1278 1308 1372 1372 1324 1259 1139 1020 950 897 901 963 1122 1256 1336 1362 1361 1382 1484 1575 1631 1685 1727 1679 1773 1904 2038 2167 2250 2224 2010 2128 2196 2122 1833 1409 1166 1166 1126 1184 1340 1451 1597 1871 1874 1745 1686 1567 1564 1571 1640 1642 1646 1592 1570 1586 1611 1594 1471 1195 1346 1508 1454 1080 881 839 717 536 546 566
1471 1216 1312 1331 1174 878 710 1022 1256 1522 1514 1512 1536 1453 1222 1156 1223 1246 1161 1069 929 916 925 832 804 768 799 905 1016 1109 1185 1220 1255 1287 1385 1481 1577 1636 1701 1794 1843 1854 1846 1817 1721 1572 1370 1427 1306 1136 911 975 1048 991 884 1072 1122 1329 1601 1600 1443 1382 1381 1283 1253 1354 1420 1479 1545 1542 1470 1247 981 990 988 975 905 788 686 516 350 260 228 139 144
1109 962 940 935 1057 1076 908 754 700 973 1394 1394 1353 1329 1219 1212 1240 1125 1095 1043 1037 1062 1012 949 848 801 807 837 886 961 1037 1102 1170 1198 1196 1156 1237 1344 1388 1382 1409 1476 1520 1542 1646 1601 1247 904 840 754 712 751 824 839 861 824 789 884 917 1084 1173 1252 1279 1142 1140 1136 1172 1117 1068 958 820 642 609 602 505 430 414 331 247 150 60 45 54 0 0
928 742 548 719 818 886 770 576 575 772 780 1175 1260 1278 1127 875 1046 1294 1260 1190 1206 1145 1080 977 893 833 854 876 872 912 941 984 1058 1093 1106 1077 1024 974 923 1208 1365 1488 1650 1401 1347 1390 1353 1330 1094 1023 985 968 935 898 832 848 830 825 968 1019 896 905 984 984 874 800 732 695 609 534 407 332 228 194 181 157 129 106 10 0 0 1 0 0 0
340 461 491 558 720 712 753 799 751 607 760 809 1077 1097 1086 884 802 784 729 1129 1327 1340 1214 1098 987 894 820 786 791 804 825 841 865 894 894 842 756 658 699 1159 1365 1344 1428 1322 1294 1491 1547 1524 1410 1356 1281 1219 1135 1082 1039 994 993 996 993 944 862 787 797 752 747 697 631 558 440 332 230 164 100 48 4 15 0 0 0 1 2 0 0 0 0
962 1314 946 755 810 885 882 839 816 730 1085 1437 1364 1271 1212 1067 807 686 886 993 1082 1251 1564 1442 1261 1091 956 832 798 730 678 664 646 618 568 516 462 436 424 580 971 1325 1404 1335 1271 1367 1448 1488 1408 1354 1296 1234 1204 1150 1065 1033 1007 996 923 832 761 721 606 533 492 465 408 329 260 169 111 69 59 11 12 6 0 0 0 0 0 0 0 0 0
745 827 982 852 763 749 687 737 885 1099 1241 1452 1463 1329 1205 1073 995 817 686 723 952 1200 1494 1687 1626 1507 1425 1259 1077 1016 931 861 729 614 531 482 586 680 708 660 606 798 1229 1275 1263 1374 1392 1368 1295 1204 1147 1092 1026 977 925 875 854 858 799 744 590 377 259 284 219 156 103 72 76 81 66 18 8 2 2 0 0 0 0 0 0 0 0 0 0
1169 1209 1252 1052 920 863 768 833 988 949 978 997 1046 1063 1097 1145 1120 1019 766 641 644 875 1045 1218 1250 1049 1089 1287 1282 1166 986 1049 1118 1059 975 963 983 989 1000 1030 1056 1035 942 859 887 895 1032 1037 1072 1001 912 870 774 734 724 690 663 672 530 498 192 183 95 22 17 49 26 21 39 52 22 0 0 0 0 0 0 0 0 0 0 0 0 0 0
878 840 808 785 685 614 608 713 777 858 901 911 818 702 643 703 864 1045 1215 789 659 558 750 870 787 628 641 634 706 770 746 855 935 1048 1119 1071 949 800 709 678 651 609 598 564 547 660 758 670 681 730 751 754 769 760 742 732 588 531 434 444 402 299 89 58 10 0 0 6 38 27 22 0 0 0 0 0 0 0 0 0 0 0 0 0 0
728 775 718 636 569 471 378 377 488 553 591 618 679 698 727 634 480 524 600 624 631 599 540 479 372 277 298 370 458 566 643 680 642 631 563 501 436 360 327 334 293 274 240 287 337 354 445 512 678 658 585 530 516 483 457 357 325 182 41 303 374 242 0 0 3 6 25 23 20 0 0 0 0 0 0 0 0 0 0 0 0 0 0 0 0
512 545 465 393 332 312 268 226 188 195 193 194 205 220 274 256 266 323 340 433 397 285 157 195 170 140 145 204 236 262 138 77 68 110 165 306 327 322 231 109 112 115 120 105 106 155 215 282 261 146 130 127 71 55 81 53 57 72 267 375 248 88 0 4 5 2 0 0 0 0 0 0 0 0 0 0 0 0 0 0 0 0 0 0 0
279 271 246 236 242 231 212 167 128 120 93 82 116 164 211 230 187 160 131 174 145 175 143 139 129 99 48 57 47 30 22 14 20 6 28 100 112 74 13 0 7 16 27 35 0 16 26 9 8 81 89 74 60 34 18 15 1 0 33 31 20 12 12 0 0 0 0 0 0 0 0 0 0 0 0 0 0 0 0 0 0 0 0 0 0
127 144 153 151 146 143 140 142 69 68 78 88 100 78 122 120 58 47 124 139 126 3 3 77 67 64 58 35 3 0 0 0 0 0 0 13 15 7 0 0 4 7 3 8 35 45 15 44 54 40 51 65 54 39 17 0 0 0 0 0 11 0 0 0 0 0 0 0 0 0 0 0 0 0 0 0 0 0 0 0 0 0 0 0 0
0 0 0 0 0 0 0 44 0 0 1 4 6 24 49 67 68 81 88 87 102 102 13 1 0 0 0 0 0 0 0 0 0 1 10 0 0 0 0 0 0 0 0 17 22 17 20 8 10 9 6 12 21 17 13 0 0 0 0 0 0 0 0 0 0 0 0 0 0 0 0 0 0 0 0 0 0 0 0 0 0 0 0 0 0
0 0 0 0 0 0 0 0 0 0 0 0 0 0 0 0 4 4 1 0 3 2 75 2 0 0 0 0 0 0 0 2 0 0 0 0 0 0 0 0 0 0 0 0 0 2 0 0 0 1 2 0 9 30 0 0 0 0 0 0 0 0 0 0 0 0 0 0 0 0 0 0 0 0 0 0 0 0 0 0 0 0 0 0 0
0 0 0 0 0 0 0 0 0 0 0 0 0 0 0 0 0 0 0 0 0 7 12 31 13 12 9 5 2 0 1 1 0 0 0 0 0 0 0 0 0 0 0 0 0 0 0 0 0 0 0 0 0 0 0 0 0 0 0 0 0 0 0 0 0 0 0 0 0 0 0 0 0 0 0 0 0 0 0 0 0 0 0 0 0
0 0 0 0 0 0 0 0 0 0 0 0 0 0 0 0 0 0 0 0 0 8 37 49 36 20 7 3 2 7 1 0 0 0 0 0 0 0 0 0 0 0 0 0 0 0 0 0 0 0 0 0 0 0 0 0 0 0 0 0 0 0 0 0 0 0 0 0 0 0 0 0 0 0 0 0 0 0 0 0 0 0 0 0 0
0 0 0 0 0 0 0 0 0 0 0 0 0 0 0 0 0 0 0 0 0 0 0 13 8 5 0 0 0 0 0 0 0 0 0 0 0 0 0 0 0 0 0 0 0 0 0 0 0 0 0 0 0 0 0 0 0 0 0 0 0 0 0 0 0 0 0 0 0 0 0 0 0 0 0 0 0 0 0 0 0 0 0 0 0
0 0 1 17 2 0 0 0 0 0 0 0 0 0 0 0 0 0 0 0 0 0 0 0 0 0 0 0 0 0 0 0 0 0 0 0 0 0 0 0 0 0 0 0 0 0 0 0 0 0 0 0 0 0 0 0 0 0 0 0 0 0 0 0 0 0 0 0 0 0 0 0 0 0 0 0 0 0 0 0 0 0 0 0 0
0 0 0 0 0 0 0 0 0 0 0 0 0 0 0 0 0 0 0 0 0 0 0 0 0 0 0 0 0 0 0 0 0 0 0 0 0 0 0 0 0 0 0 0 0 4 0 0 0 0 0 0 0 0 0 0 0 0 0 0 0 0 0 0 0 0 0 0 0 0 0 0 0 0 0 0 0 0 0 0 0 0 0 0 0
0 81 106 22 0 0 0 0 0 0 0 0 0 0 0 0 0 0 0 0 0 0 0 0 0 0 0 0 0 0 0 0 0 0 0 0 0 0 0 0 0 0 0 0 0 0 0 0 0 0 0 0 0 0 0 0 0 0 0 0 0 0 0 0 0 0 0 0 0 0 0 0 0 0 0 0 0 0 0 0 0 0 0 0 0
0 0 0 26 0 0 0 0 0 0 0 0 0 0 0 0 0 0 0 0 0 0 0 0 0 0 0 0 0 0 0 0 0 0 0 0 0 0 0 0 0 0 0 0 0 0 0 0 0 0 0 0 0 0 0 0 0 0 0 0 0 0 0 0 0 0 0 0 0 0 0 0 0 0 0 0 0 0 0 0 0 0 0 0 0
0 0 0 0 0 0 0 0 0 0 0 0 2 68 15 0 0 0 0 0 0 0 0 0 0 0 0 0 0 0 0 0 0 0 0 0 0 0 0 0 0 0 0 0 0 0 0 0 0 0 0 0 0 0 0 0 0 0 0 0 0 0 0 0 0 0 0 0 0 0 0 0 0 0 0 0 0 0 0 0 0 0 0 0 0
0 0 0 0 0 0 0 0 0 0 0 0 0 1 23 54 60 3 0 0 0 0 0 0 0 0 0 0 0 0 0 0 0 0 0 0 0 0 0 0 0 0 0 0 0 0 0 0 0 0 0 0 0 0 0 0 0 0 0 0 0 0 0 0 0 0 0 0 0 0 0 0 0 0 0 0 0 0 0 0 0 0 0 0 0
0 0 0 0 0 0 0 0 0 0 0 0 0 1 28 0 8 20 10 9 7 0 0 0 0 0 0 0 0 0 0 0 0 0 0 0 0 0 0 0 0 0 0 0 0 0 0 0 0 0 0 0 0 0 0 0 0 0 0 0 0 0 0 0 0 0 0 0 0 0 0 0 0 0 0 0 0 0 0 0 0 0 0 0 0
0 0 0 0 0 0 0 1 0 0 0 0 0 0 0 11 0 0 0 52 44 0 0 0 0 0 0 0 0 0 0 0 0 0 0 0 0 0 0 0 0 0 0 0 0 0 0 0 0 0 0 0 0 0 0 0 0 0 0 0 0 0 0 0 0 0 0 0 0 0 0 0 0 0 0 0 0 0 0 0 0 0 0 0 0
0 0 0 0 0 0 17 2 0 0 0 6 0 9 1 12 0 0 0 0 1 25 2 0 0 0 0 0 0 0 0 0 0 0 0 0 0 0 0 0 0 0 0 0 0 0 0 0 0 0 0 0 0 0 0 0 0 0 0 0 0 0 0 0 0 0 0 0 0 0 0 0 0 0 0 0 0 0 0 0 0 0 0 0 0
0 0 0 0 0 0 0 21 0 0 16 0 0 0 0 1 0 0 0 0 0 0 0 0 0 0 0 0 0 0 0 0 0 0 0 0 0 0 0 0 0 0 0 0 0 0 0 0 0 0 0 0 0 0 0 0 0 0 0 0 0 0 0 0 0 0 0 0 0 0 0 0 0 0 0 0 0 0 0 0 0 0 0 0 0
0 0 0 0 0 0 0 0 0 0 0 0 0 18 20 0 0 0 0 4 5 0 0 0 0 0 0 0 0 0 0 0 0 0 0 0 0 0 0 0 0 0 0 0 0 0 0 0 0 0 0 0 0 0 0 0 0 0 0 0 0 0 0 0 0 0 0 0 0 0 0 0 0 0 0 0 0 0 0 0 0 0 0 0 1
41 27 3 8 1 0 0 0 0 0 0 0 5 6 8 0 0 0 0 0 0 0 0 0 0 0 0 0 0 0 0 0 0 0 0 0 0 0 0 0 0 0 0 0 0 0 0 0 0 0 0 0 0 0 0 0 0 0 0 0 0 0 0 0 0 0 0 0 0 0 0 0 0 0 0 0 0 0 0 0 0 0 0 0 2
36 33 30 31 32 28 26 10 0 0 0 0 0 0 3 0 0 0 0 0 1 0 0 0 0 0 0 0 0 0 0 2 0 0 0 0 0 0 0 0 0 0 0 0 0 0 0 0 0 0 0 0 0 0 0 0 0 0 0 0 0 1 0 0 0 0 0 0 0 0 0 0 0 0 0 0 0 0 0 0 0 1 1 1 1
60 56 53 49 45 41 37 32 23 10 0 0 0 0 0 0 0 0 0 0 0 0 0 0 0 0 0 0 0 0 0 0 0 0 0 0 1 1 0 1 2 2 0 0 0 0 0 0 0 0 0 0 0 0 0 0 0 0 1 4 4 0 0 0 0 0 0 0 0 0 0 0 0 0 0 0 0 0 0 1 2 2 3 4 4
49 44 44 42 44 43 42 38 33 40 0 0 0 0 0 0 0 0 0 0 0 0 0 0 0 0 0 0 0 0 0 0 0 0 0 0 0 4 6 6 4 0 0 0 0 0 0 0 0 0 0 0 0 0 0 0 0 0 0 0 0 0 0 2 3 2 1 0 0 0 0 0 0 0 0 0 0 0 2 1 1 2 2 4 5
78 62 51 45 37 32 28 22 22 13 37 63 64 57 57 18 0 0 0 0 0 0 0 0 0 0 0 3 0 0 0 1 0 0 0 0 0 0 0 0 0 0 1 2 0 0 0 0 0 0 0 0 0 0 0 0 0 0 0 0 0 0 4 8 6 3 1 2 2 1 0 0 0 0 0 0 0 0 1 0 2 4 6 7 4
38 34 28 26 24 19 16 0 0 0 0 0 0 0 0 0 0 0 0 0 0 0 0 0 0 0 0 0 0 0 0 0 0 0 1 3 4 6 4 1 0 0 0 0 0 0 0 0 0 0 0 0 0 0 0 0 0 0 0 0 0 6 6 5 2 1 3 3 2 1 0 0 0 0 0 0 0 1 0 3 1 4 1 1 1
14 0 0 5 4 4 0 0 0 0 0 0 0 0 0 0 0 0 0 0 0 0 0 0 0 0 0 0 0 0 0 0 0 0 0 0 3 6 6 0 0 0 0 0 0 0 0 0 0 0 0 0 0 0 0 0 0 0 0 0 1 2 2 1 1 2 2 2 2 2 1 0 0 0 0 0 0 0 2 3 7 5 2 2 2
0 0 0 0 0 0 0 0 0 0 0 0 0 0 0 0 0 0 0 0 0 0 0 2 2 0 0 4 1 3 1 0 0 0 0 0 0 0 0 0 0 0 0 0 0 0 0 0 0 0 0 0 0 0 0 0 0 0 0 2 2 2 2 3 3 3 4 4 4 1 0 0 0 0 0 0 0 1 6 5 6 1 1 1 1
Wind_Speed
10 10 12 12 13 12 14 14 13 13 13 12 11 9 9 9 8 6 8 5 5 4 3 3 3 3 3 2 2 2 1 1 3 3 3 2 1 1 1 2 2 1 2 1 2 2 2 2 2 2 3 3 4 5 6 6 6 6 8 9 9 11 12 11 9 6 5 8 7 7 5 4 4 4 2 1 1 1 1 3 2 4 5 5 5
13 12 12 12 10 11 12 13 13 13 12 11 9 9 9 9 9 10 7 6 6 5 4 5 5 4 4 3 3 3 2 2 4 5 5 4 3 5 4 4 4 3 3 2 1 3 4 2 2 3 5 5 5 6 7 6 6 5 7 9 8 10 11 11 10 8 6 5 6 6 6 7 4 6 2 1 2 1 2 1 3 4 5 5 5
14 14 13 13 11 11 12 13 13 12 11 11 10 10 10 9 11 10 8 8 7 6 6 6 5 5 5 5 5 5 4 4 5 6 5 5 5 5 5 6 6 5 5 4 4 5 5 5 3 4 6 5 5 6 8 7 8 8 7 9 8 9 11 11 11 9 7 6 7 6 7 6 7 5 4 5 5 4 3 2 3 4 6 5 6
16 15 15 13 13 13 12 13 13 13 12 13 11 11 11 11 11 10 8 9 8 8 7 7 7 7 7 6 6 6 6 6 7 7 6 6 6 5 6 6 6 6 6 6 6 7 6 6 5 5 7 7 6 7 8 9 9 9 8 9 10 9 12 13 12 10 9 7 7 9 7 6 7 9 9 8 6 5 7 7 8 7 7 6 7
15 15 15 14 13 13 13 14 14 13 13 14 12 12 11 12 12 10 10 9 8 9 9 9 8 9 8 7 7 7 6 7 7 7 7 7 6 5 6 6 6 6 6 6 6 7 8 8 6 8 10 9 8 8 9 7 9 9 9 9 10 11 12 13 13 14 13 10 7 8 8 8 9 10 12 10 9 9 10 9 9 11 11 8 7
16 16 16 15 14 13 13 14 14 14 13 13 13 12 12 12 12 11 11 9 9 9 10 10 10 9 8 8 8 7 8 8 8 7 7 8 7 6 6 6 6 6 6 6 6 7 8 8 9 10 10 10 9 9 9 8 9 8 9 10 11 12 12 13 15 16 15 13 13 9 11 10 10 11 13 13 12 12 12 12 11 13 12 11 9
17 17 17 15 15 14 14 14 15 15 14 13 13 13 12 12 12 11 11 10 10 10 10 11 11 10 9 9 9 9 9 10 9 9 9 9 8 8 7 7 7 7 7 7 7 7 8 9 9 10 10 11 10 9 9 9 10 8 9 9 11 13 12 13 16 17 17 16 15 15 12 13 13 12 13 13 14 16 15 13 12 14 13 11 8
19 19 18 17 16 15 15 15 15 15 15 14 12 12 12 12 12 11 12 11 11 11 11 11 11 12 11 11 11 12 12 12 12 11 11 11 11 10 9 8 8 8 7 7 7 8 8 8 9 10 11 12 12 11 12 10 12 9 10 11 12 13 11 13 15 16 17 17 16 14 16 14 13 13 13 13 14 16 16 15 11 10 11 11 8
20 20 19 18 18 19 19 18 17 17 16 15 13 12 12 12 12 12 11 12 12 12 12 12 13 13 13 13 13 14 14 14 15 15 14 13 14 12 11 11 10 10 9 8 9 9 9 9 10 11 11 10 11 11 11 14 14 11 9 13 12 13 12 13 14 15 15 16 14 16 15 14 14 13 13 15 15 12 12 13 11 11 11 11 9
20 20 19 19 21 22 22 21 20 19 17 16 16 15 14 14 13 12 11 12 12 12 12 13 13 14 14 14 15 16 16 17 15 12 15 17 17 16 15 14 13 13 11 11 10 11 10 11 11 8 8 7 8 14 19 16 13 14 11 14 12 13 14 14 15 15 14 14 14 14 14 14 14 14 14 15 14 14 12 11 10 10 11 12 12
21 20 19 21 24 25 25 24 24 21 19 19 19 19 18 17 16 14 14 14 14 14 15 14 15 15 15 15 15 16 17 18 14 14 14 14 17 18 17 16 16 14 14 13 11 12 13 14 14 13 12 17 20 21 19 18 18 18 15 14 16 16 17 16 15 16 16 15 16 17 16 15 15 15 14 14 16 15 13 13 12 12 14 14 13
23 23 25 29 27 26 26 26 25 23 23 22 22 22 22 21 19 18 18 17 17 18 17 16 17 17 17 17 16 17 18 17 15 15 15 15 16 19 19 18 17 17 16 15 15 15 14 16 18 20 20 20 22 21 20 22 22 22 22 22 19 17 17 19 18 19 19 18 18 18 18 18 18 18 16 16 15 15 14 13 14 14 15 14 13
31 30 29 27 27 27 27 25 24 24 24 24 25 25 24 23 22 22 20 20 22 21 20 20 19 19 19 18 18 19 19 19 19 20 20 19 18 18 20 19 19 18 18 18 18 18 18 18 20 22 21 21 22 22 23 24 24 26 27 27 27 28 25 24 22 20 22 21 21 21 22 22 21 21 20 18 17 15 15 15 16 16 17 15 14
32 31 30 29 29 30 30 27 24 23 24 25 26 25 25 24 24 25 25 25 24 23 23 22 22 22 21 20 20 21 22 29 29 27 26 25 23 22 21 21 20 19 19 20 20 20 20 20 21 20 21 21 21 22 23 25 25 27 27 27 28 30 32 31 30 28 26 24 25 24 25 25 22 22 20 19 17 16 16 17 19 19 19 18 16
29 28 29 30 29 30 29 27 24 23 23 25 26 26 26 25 26 26 26 25 24 24 24 24 25 25 24 24 24 25 30 33 32 30 28 26 25 23 22 22 21 20 20 21 21 20 21 21 21 21 23 22 23 23 24 25 27 27 29 29 30 30 30 30 29 27 27 27 27 27 26 26 24 23 22 22 21 19 19 19 20 21 21 21 22
34 33 31 27 25 31 30 29 27 25 26 29 30 30 28 27 26 28 28 29 30 30 32 31 30 31 31 30 29 32 33 35 34 33 31 29 27 26 25 22 21 21 22 21 21 21 22 22 22 22 23 24 25 24 22 25 28 29 30 31 32 32 32 31 29 29 30 30 31 32 32 32 33 32 30 28 26 25 24 25 26 25 24 26 26
32 31 33 31 30 31 32 33 31 30 31 32 31 32 33 32 29 29 30 29 29 29 31 32 33 35 35 35 35 35 34 35 35 34 33 33 30 28 26 25 23 21 22 25 26 25 26 25 24 24 26 25 26 25 24 23 29 31 32 33 33 33 32 32 34 37 41 43 43 42 41 40 40 39 38 37 32 28 30 31 nan nan nan nan nan
31 32 32 32 33 36 36 35 30 28 28 28 28 30 31 33 32 31 27 28 30 31 31 33 34 34 36 37 37 37 37 38 39 37 37 36 33 31 28 26 25 25 27 27 28 29 28 30 30 28 28 28 28 26 24 26 30 32 34 36 36 36 34 34 37 41 45 45 44 44 43 41 41 41 40 39 37 33 nan nan nan nan nan nan nan
37 35 33 34 35 39 39 37 37 36 30 28 28 29 32 34 33 33 33 29 29 32 33 33 35 36 38 40 42 42 41 40 41 39 39 38 36 33 32 30 27 27 27 29 32 32 32 36 38 35 33 32 32 32 31 29 32 34 36 37 37 37 36 35 38 41 40 40 38 39 39 39 nan nan nan nan nan nan nan nan nan nan nan nan nan
44 39 36 36 38 41 41 41 41 39 33 31 35 39 38 37 37 35 34 32 29 28 32 33 36 39 42 43 42 41 42 41 42 44 44 43 39 36 36 35 32 28 28 30 31 33 34 35 37 38 38 37 37 36 36 35 34 35 35 36 39 39 36 34 39 41 41 41 40 40 39 nan nan nan nan nan nan nan nan nan nan nan nan nan nan
48 47 43 41 43 44 43 42 42 37 30 33 39 40 36 37 38 36 38 36 32 30 34 35 38 42 46 46 47 45 43 43 45 49 50 49 48 43 39 38 36 34 31 33 33 36 37 37 36 38 40 41 40 39 39 37 33 32 36 36 36 38 37 36 42 44 41 nan nan nan nan nan nan nan nan nan nan nan nan nan nan nan nan nan nan
48 52 50 47 47 49 46 43 41 38 33 34 38 39 38 39 40 40 42 40 36 33 36 40 41 44 43 46 48 49 48 49 46 51 53 54 53 52 44 42 39 34 33 31 38 39 40 39 38 38 39 40 41 39 39 38 34 31 35 38 36 32 nan nan nan nan nan nan nan nan nan nan nan nan nan nan nan nan nan nan nan nan nan nan nan
41 48 51 49 48 48 45 40 36 34 33 33 36 37 37 38 39 42 45 43 38 36 36 37 40 40 39 39 44 47 48 51 54 52 54 56 55 55 53 49 50 47 42 42 42 41 40 40 39 41 38 38 38 40 39 37 36 32 31 36 37 31 nan nan nan nan nan nan nan nan nan nan nan nan nan nan nan nan nan nan nan nan nan nan nan
29 35 39 40 40 39 35 30 28 31 33 32 31 30 27 27 29 33 37 40 39 37 35 35 35 35 33 33 33 36 41 46 51 53 51 54 54 55 54 54 54 49 47 45 44 42 39 39 41 39 35 37 39 36 37 35 29 25 nan 26 33 32 nan nan nan nan nan nan nan nan nan nan nan nan nan nan nan nan nan nan nan nan nan nan nan
26 26 27 28 28 27 27 26 27 29 30 30 29 27 24 22 23 26 30 30 32 34 33 32 33 32 32 33 31 29 31 nan nan 45 51 52 52 51 51 51 50 47 46 44 42 41 39 36 36 39 38 35 nan nan nan nan nan nan 14 24 33 nan nan nan nan nan nan nan nan nan nan nan nan nan nan nan nan nan nan nan nan nan nan nan nan
28 26 25 25 27 28 29 28 29 29 nan nan 30 29 30 31 31 29 29 29 29 31 33 34 35 nan nan nan nan nan nan nan nan nan nan nan 44 nan nan nan nan nan nan nan nan nan nan nan nan nan nan nan nan nan nan nan nan nan nan nan nan nan nan nan nan nan nan nan nan nan nan nan nan nan nan nan nan nan nan nan nan nan nan nan nan
32 32 32 31 31 31 32 30 nan nan nan nan nan nan 35 35 nan nan 31 33 33 nan nan nan nan nan nan nan nan nan nan nan nan nan nan nan nan nan nan nan nan nan nan nan nan nan nan nan nan nan nan nan nan nan nan nan nan nan nan nan nan nan nan nan nan nan nan nan nan nan nan nan nan nan nan nan nan nan nan nan nan nan nan nan nan
nan nan nan nan nan nan nan nan nan nan nan nan nan nan nan nan nan nan nan nan 34 35 nan nan nan nan nan nan nan nan nan nan nan nan nan nan nan nan nan nan nan nan nan nan nan nan nan nan nan nan nan nan nan nan nan nan nan nan nan nan nan nan nan nan nan nan nan nan nan nan nan nan nan nan nan nan nan nan nan nan nan nan nan nan nan
nan nan nan nan nan nan nan nan nan nan nan nan nan nan nan nan nan nan nan nan nan nan nan nan nan nan nan nan nan nan nan nan nan nan nan nan nan nan nan nan nan nan nan nan nan nan nan nan nan nan nan nan nan nan nan nan nan nan nan nan nan nan nan nan nan nan nan nan nan nan nan nan nan nan nan nan nan nan nan nan nan nan nan nan nan
nan nan nan nan nan nan nan nan nan nan nan nan nan nan nan nan nan nan nan nan nan nan nan nan nan nan nan nan nan nan nan nan nan nan nan nan nan nan nan nan nan nan nan nan nan nan nan nan nan nan nan nan nan nan nan nan nan nan nan nan nan nan nan nan nan nan nan nan nan nan nan nan nan nan nan nan nan nan nan nan nan nan nan nan nan
nan nan nan nan nan nan nan nan nan nan nan nan nan nan nan nan nan nan nan nan nan nan nan nan nan nan nan nan nan nan nan nan nan nan nan nan nan nan nan nan nan nan nan nan nan nan nan nan nan nan nan nan nan nan nan nan nan nan nan nan nan nan nan nan nan nan nan nan nan nan nan nan nan nan nan nan nan nan nan nan nan nan nan nan nan
nan nan nan nan nan nan nan nan nan nan nan nan nan nan nan nan nan nan nan nan nan nan nan nan nan nan nan nan nan nan nan nan nan nan nan nan nan nan nan nan nan nan nan nan nan nan nan nan nan nan nan nan nan nan nan nan nan nan nan nan nan nan nan nan nan nan nan nan nan nan nan nan nan nan nan nan nan nan nan nan nan nan nan nan nan
nan nan nan nan nan nan nan nan nan nan nan nan nan nan nan nan nan nan nan nan nan nan nan nan nan nan nan nan nan nan nan nan nan nan nan nan nan nan nan nan nan nan nan nan nan nan nan nan nan nan nan nan nan nan nan nan nan nan nan nan nan nan nan nan nan nan nan nan nan nan nan nan nan nan nan nan nan nan nan nan nan nan nan nan nan
nan nan nan nan nan nan nan nan nan nan nan nan nan nan nan nan nan nan nan nan nan nan nan nan nan nan nan nan nan nan nan nan nan nan nan nan nan nan nan nan nan nan nan nan nan nan nan nan nan nan nan nan nan nan nan nan nan nan nan nan nan nan nan nan nan nan nan nan nan nan nan nan nan nan nan nan nan nan nan nan nan nan nan nan nan
nan nan 46 nan nan nan nan nan nan nan nan nan nan nan nan nan nan nan nan nan nan nan nan nan nan nan nan nan nan nan nan nan nan nan nan nan nan nan nan nan nan nan nan nan nan nan nan nan nan nan nan nan nan nan nan nan nan nan nan nan nan nan nan nan nan nan nan nan nan nan nan nan nan nan nan nan nan nan nan nan nan nan nan nan nan
nan nan nan nan nan nan nan nan nan nan nan nan nan nan nan nan nan nan nan nan nan nan nan nan nan nan nan nan nan nan nan nan nan nan nan nan nan nan nan nan nan nan nan nan nan nan nan nan nan nan nan nan nan nan nan nan nan nan nan nan nan nan nan nan nan nan nan nan nan nan nan nan nan nan nan nan nan nan nan nan nan nan nan nan nan
nan nan nan nan nan nan nan nan nan nan nan nan nan nan nan nan nan nan nan nan nan nan nan nan nan nan nan nan nan nan nan nan nan nan nan nan nan nan nan nan nan nan nan nan nan nan nan nan nan nan nan nan nan nan nan nan nan nan nan nan nan nan nan nan nan nan nan nan nan nan nan nan nan nan nan nan nan nan nan nan nan nan nan nan nan
nan nan nan nan nan nan nan nan nan nan nan nan nan nan nan nan nan nan nan nan nan nan nan nan nan nan nan nan nan nan nan nan nan nan nan nan nan nan nan nan nan nan nan nan nan nan nan nan nan nan nan nan nan nan nan nan nan nan nan nan nan nan nan nan nan nan nan nan nan nan nan nan nan nan nan nan nan nan nan nan nan nan nan nan nan
nan nan nan nan nan nan nan nan nan nan nan nan nan nan nan nan nan nan nan nan nan nan nan nan nan nan nan nan nan nan nan nan nan nan nan nan nan nan nan nan nan nan nan nan nan nan nan nan nan nan nan nan nan nan nan nan nan nan nan nan nan nan nan nan nan nan nan nan nan nan nan nan nan nan nan nan nan nan nan nan nan nan nan nan nan
nan nan nan nan nan nan nan nan nan nan nan nan nan nan nan nan nan nan nan nan nan nan nan nan nan nan nan nan nan nan nan nan nan nan nan nan nan nan nan nan nan nan nan nan nan nan nan nan nan nan nan nan nan nan nan nan nan nan nan nan nan nan nan nan nan nan nan nan nan nan nan nan nan nan nan nan nan nan nan nan nan nan nan nan nan
nan nan nan nan nan nan nan nan nan nan nan nan nan nan nan nan nan nan nan nan nan nan nan nan nan nan nan nan nan nan nan nan nan nan nan nan nan nan nan nan nan nan nan nan nan nan nan nan nan nan nan nan nan nan nan nan nan nan nan nan nan nan nan nan nan nan nan nan nan nan nan nan nan nan nan nan nan nan nan nan nan nan nan nan nan
nan nan nan nan nan nan nan nan nan nan nan nan nan nan nan nan nan nan nan nan nan nan nan nan nan nan nan nan nan nan nan nan nan nan nan nan nan nan nan nan nan nan nan nan nan nan nan nan nan nan nan nan nan nan nan nan nan nan nan nan nan nan nan nan nan nan nan nan nan nan nan nan nan nan nan nan nan nan nan nan nan nan nan nan nan
nan nan nan nan nan nan nan nan nan nan nan nan nan nan nan nan nan nan nan nan nan nan nan nan nan nan nan nan nan nan nan nan nan nan nan nan nan nan nan nan nan nan nan nan nan nan nan nan nan nan nan nan nan nan nan nan nan nan nan nan nan nan nan nan nan nan nan nan nan nan nan nan nan nan nan nan nan nan nan nan nan nan nan nan nan
nan nan nan nan nan nan nan nan nan nan nan nan nan nan nan nan nan nan nan nan nan nan nan nan nan nan nan nan nan nan nan nan nan nan nan nan nan nan nan nan nan nan nan nan nan nan nan nan nan nan nan nan nan nan nan nan nan nan nan nan nan nan nan nan nan nan nan nan nan nan nan nan nan nan nan nan nan nan nan nan nan nan nan nan nan
nan nan nan nan nan nan nan nan nan nan nan nan nan nan nan nan nan nan nan nan nan nan nan nan nan nan nan nan nan nan nan nan nan nan nan nan nan nan nan nan nan nan nan nan nan nan nan nan nan nan nan nan nan nan nan nan nan nan nan nan nan nan nan nan nan nan nan nan nan nan nan nan nan nan nan nan nan nan nan nan nan nan nan nan nan
nan nan nan nan nan nan nan nan nan nan nan nan nan nan nan nan nan nan nan nan nan nan nan nan nan nan nan nan nan nan nan nan nan nan nan nan nan nan nan nan nan nan nan nan nan nan nan nan nan nan nan nan nan nan nan nan nan nan nan nan nan nan nan nan nan nan nan nan nan nan nan nan nan nan nan nan nan nan nan nan nan nan nan nan nan
nan nan nan nan nan nan nan nan nan nan nan nan nan nan nan nan nan nan nan nan nan nan nan nan nan nan nan nan nan nan nan nan nan nan nan nan nan nan nan nan nan nan nan nan nan nan nan nan nan nan nan nan nan nan nan nan nan nan nan nan nan nan nan nan nan nan nan nan nan nan nan nan nan nan nan nan nan nan nan nan nan nan nan nan nan
nan nan nan nan nan nan nan nan nan nan nan nan nan nan nan nan nan nan nan nan nan nan nan nan nan nan nan nan nan nan nan nan nan nan nan nan nan nan nan nan nan nan nan nan nan nan nan nan nan nan nan nan nan nan nan nan nan nan nan nan nan nan nan nan nan nan nan nan nan nan nan nan nan nan nan nan nan nan nan nan nan nan nan nan nan
nan nan nan nan nan nan nan nan nan nan nan nan nan nan nan nan nan nan nan nan nan nan nan nan nan nan nan nan nan nan nan nan nan nan nan nan nan nan nan nan nan nan nan nan nan nan nan nan nan nan nan nan nan nan nan nan nan nan nan nan nan nan nan nan nan nan nan nan nan nan nan nan nan nan nan nan nan nan nan nan nan nan nan nan nan
nan nan nan nan nan nan nan nan nan nan nan nan nan nan nan nan nan nan nan nan nan nan nan nan nan nan nan nan nan nan nan nan nan nan nan nan nan nan nan nan nan nan nan nan nan nan nan nan nan nan nan nan nan nan nan nan nan nan nan nan nan nan nan nan nan nan nan nan nan nan nan nan nan nan nan nan nan nan nan nan nan nan nan nan nan
nan nan nan nan nan nan nan nan nan nan nan nan nan nan nan nan nan nan nan nan nan nan nan nan nan nan nan nan nan nan nan nan nan nan nan nan nan nan nan nan nan nan nan nan nan nan nan nan nan nan nan nan nan nan nan nan nan nan nan nan nan nan nan nan nan nan nan nan nan nan nan nan nan nan nan nan nan nan nan nan nan nan nan nan nan
Wind_Direction
213 216 224 226 229 232 234 236 237 236 239 244 246 247 247 251 254 253 253 258 258 251 242 226 229 228 221 216 210 220 236 238 269 279 290 311 291 310 295 305 322 300 278 183 248 269 288 333 18 14 322 320 321 320 327 335 338 345 342 343 349 342 345 344 359 20 13 356 12 29 22 24 24 351 35 55 108 137 219 313 280 268 274 287 302
211 214 220 226 231 231 234 235 235 237 241 242 240 240 243 246 254 255 261 256 255 244 230 216 217 226 226 230 234 231 244 264 268 278 293 302 301 286 300 306 306 297 274 280 269 282 289 306 334 334 309 314 312 313 312 316 317 323 327 330 342 338 336 339 349 348 12 352 16 16 28 355 22 354 328 83 113 119 160 243 282 279 284 294 308
215 219 222 227 231 233 238 239 243 247 246 244 244 245 247 252 257 263 261 256 252 241 229 220 219 224 222 225 240 242 256 268 272 286 295 305 310 302 299 306 306 304 303 304 296 281 279 293 298 288 285 284 296 300 301 306 305 311 316 317 329 330 323 335 328 341 353 357 348 359 4 359 353 353 342 352 6 356 354 307 288 297 304 306 316
222 225 226 226 229 234 238 241 249 250 251 248 253 252 255 257 260 262 261 253 254 245 239 231 229 227 227 228 239 246 259 265 273 282 295 301 307 312 305 303 303 304 305 302 296 292 294 287 293 288 280 286 285 282 288 294 299 305 312 315 317 316 311 316 327 329 323 333 340 341 339 335 342 330 332 336 326 311 312 327 329 317 314 309 320
231 232 234 233 232 232 233 239 244 248 249 249 253 254 256 258 260 264 260 255 253 250 247 244 240 238 232 237 243 254 262 271 279 279 282 288 298 300 302 300 298 298 302 304 302 302 300 303 300 292 293 294 288 288 289 291 295 302 311 313 310 306 300 305 310 313 318 328 320 317 311 322 320 313 307 298 303 306 308 308 312 314 313 311 320
230 235 238 240 238 237 235 235 239 242 243 244 248 250 253 257 261 259 262 261 258 256 256 253 252 253 245 243 247 252 258 264 274 277 281 284 286 289 293 297 295 293 294 297 300 301 301 303 301 298 298 301 297 294 296 301 299 307 317 315 309 300 300 299 299 303 308 312 313 304 302 299 295 297 298 296 298 304 304 308 310 305 303 305 314
230 234 238 241 241 242 241 240 239 238 237 236 237 241 245 251 257 260 262 264 264 261 260 260 255 256 256 251 250 256 259 261 265 269 270 272 280 283 284 289 288 286 289 295 297 299 300 300 302 303 306 306 303 300 292 297 301 312 319 316 305 305 304 302 299 302 305 307 308 314 310 305 301 293 293 292 301 303 301 298 301 304 301 296 310
231 232 236 238 240 243 242 243 246 247 244 242 241 241 241 244 247 251 256 262 263 264 265 265 260 259 257 258 256 256 261 261 264 267 266 267 267 268 270 273 277 280 283 289 294 297 299 302 302 303 306 306 307 303 301 299 297 303 311 307 305 307 307 301 299 302 305 307 311 310 306 302 298 301 302 297 290 297 293 294 288 288 288 295 311
235 236 237 237 239 241 240 240 242 247 251 253 250 246 246 247 248 248 250 252 254 259 263 265 266 263 260 260 259 258 260 262 262 265 266 266 264 265 266 267 268 270 270 276 281 286 289 291 295 295 301 315 325 317 310 306 303 305 306 301 305 305 302 297 300 300 303 303 308 305 304 305 304 298 291 294 291 293 295 295 297 297 295 295 301
240 241 242 241 239 241 242 241 242 245 248 251 251 249 246 245 248 251 252 253 254 256 258 261 261 263 262 261 261 259 259 259 264 280 273 265 267 263 262 263 264 264 264 263 265 274 280 281 280 295 306 320 312 295 288 288 301 305 301 297 299 299 299 300 301 304 303 304 306 303 302 303 299 297 297 300 298 299 291 284 282 280 282 288 303
240 240 240 240 241 240 240 240 240 241 241 242 244 246 245 243 242 242 244 248 251 252 253 257 257 257 259 259 261 260 258 259 271 274 276 279 268 266 265 265 266 265 267 269 267 267 271 274 273 277 283 283 281 278 281 280 275 278 284 301 303 300 297 298 300 298 299 301 295 296 299 298 296 293 295 290 291 288 287 287 284 279 279 282 287
238 236 234 235 239 242 244 245 243 240 238 237 238 240 242 242 241 240 240 242 244 247 250 252 253 256 256 257 257 257 257 261 270 271 274 278 274 267 266 265 266 269 271 272 270 270 270 271 275 275 275 280 279 278 277 276 272 271 270 272 279 296 296 295 293 291 294 294 294 295 293 293 289 289 287 286 278 279 281 280 281 279 281 284 291
229 231 238 243 246 247 248 249 250 250 247 244 242 242 244 244 243 243 242 242 244 247 249 251 252 255 258 260 260 258 259 261 265 263 261 263 266 264 264 265 266 268 271 272 274 276 278 279 279 279 276 281 280 279 279 279 276 274 271 269 270 271 274 277 281 286 288 291 291 289 291 286 286 285 283 276 276 275 276 281 284 283 286 288 285
242 240 237 235 238 246 249 248 249 253 256 256 254 251 249 248 248 247 246 244 246 246 248 252 254 257 261 262 261 261 261 260 262 259 256 254 255 257 258 264 265 267 269 271 272 276 281 283 285 284 282 281 281 283 283 283 282 280 278 277 278 275 274 275 276 275 281 285 285 283 281 284 280 277 272 270 271 275 276 278 279 282 283 283 277
243 246 247 246 242 234 236 247 248 247 252 255 256 255 253 251 251 253 256 258 258 257 256 253 252 252 252 256 258 260 255 256 259 261 261 262 262 263 261 260 263 265 268 270 272 274 279 280 285 288 287 285 283 284 284 285 284 284 283 283 281 279 277 275 275 277 279 280 280 279 276 275 276 275 273 274 276 278 280 280 278 279 282 287 292
229 224 235 243 247 250 241 225 224 236 246 245 244 242 243 249 254 252 254 256 257 261 259 260 259 256 252 252 257 258 253 251 253 254 255 256 261 264 265 265 263 263 265 268 270 271 274 278 284 285 286 286 279 268 275 282 285 287 287 286 286 283 280 278 277 274 279 280 280 277 275 274 275 275 275 277 278 282 285 288 285 281 280 282 282
240 238 238 238 239 241 245 244 232 234 243 248 250 250 247 238 238 250 258 260 262 261 261 260 261 262 260 258 259 257 255 252 253 252 253 253 258 263 264 265 265 266 267 265 265 267 269 271 273 274 274 276 273 276 276 284 288 289 289 288 288 287 281 279 277 275 277 278 277 276 275 273 271 269 267 266 271 280 289 287 nan nan nan nan nan
234 237 239 244 244 242 242 246 247 245 242 249 249 249 251 252 251 242 241 259 264 261 261 261 258 259 262 262 262 262 258 252 249 249 251 251 254 259 260 262 263 261 264 267 268 269 271 278 272 270 271 270 264 267 271 284 290 291 291 289 290 288 283 280 281 280 280 277 275 273 270 268 267 266 264 266 267 274 nan nan nan nan nan nan nan
240 236 233 239 240 243 246 248 247 249 247 244 248 251 251 251 252 251 247 238 248 260 261 262 262 260 261 262 262 261 259 254 248 248 249 250 253 255 255 256 259 262 266 269 266 269 267 267 264 264 267 267 263 263 262 273 286 285 287 287 288 286 282 281 282 281 278 276 274 272 268 266 nan nan nan nan nan nan nan nan nan nan nan nan nan
240 238 234 236 239 240 242 247 248 247 247 250 251 249 250 252 254 254 250 246 243 247 257 263 268 266 261 258 256 257 258 256 252 251 249 248 247 252 252 253 252 258 265 268 269 271 269 268 266 266 268 266 263 262 264 262 276 284 287 285 285 285 282 282 283 280 275 273 273 270 268 nan nan nan nan nan nan nan nan nan nan nan nan nan nan
233 235 235 236 236 235 238 244 249 248 250 256 258 261 260 260 260 259 255 252 250 249 251 255 261 262 259 256 254 253 254 254 251 252 252 251 248 250 255 255 255 254 255 261 261 262 261 261 262 263 265 266 265 263 262 263 265 276 278 277 275 278 279 281 281 275 270 nan nan nan nan nan nan nan nan nan nan nan nan nan nan nan nan nan nan
227 229 232 234 232 230 236 242 244 246 249 255 259 258 256 256 256 255 253 253 254 252 253 260 264 263 258 255 254 254 255 256 256 253 254 253 251 251 254 252 251 263 268 263 260 260 264 265 266 265 266 269 269 266 266 266 264 270 273 272 271 274 nan nan nan nan nan nan nan nan nan nan nan nan nan nan nan nan nan nan nan nan nan nan nan
229 230 233 236 234 233 235 239 241 243 248 249 249 250 251 253 255 256 255 255 254 251 253 260 263 264 264 262 260 259 256 255 255 257 255 254 253 252 252 253 250 254 256 260 260 263 265 268 269 267 265 264 263 263 263 264 268 267 265 275 273 271 nan nan nan nan nan nan nan nan nan nan nan nan nan nan nan nan nan nan nan nan nan nan nan
232 232 233 235 235 234 236 238 237 236 237 241 244 243 244 249 255 257 258 255 252 252 252 254 258 264 270 272 272 266 258 256 255 256 257 256 255 257 257 254 254 257 257 257 258 259 261 265 269 265 267 268 264 262 264 265 267 266 nan 275 274 268 nan nan nan nan nan nan nan nan nan nan nan nan nan nan nan nan nan nan nan nan nan nan nan
244 243 242 240 239 237 236 233 230 231 234 236 238 242 246 251 256 262 268 262 256 256 256 257 262 269 275 277 278 273 261 nan nan 255 256 256 254 256 258 261 262 264 263 258 258 263 265 260 254 261 260 256 nan nan nan nan nan nan 280 282 276 nan nan nan nan nan nan nan nan nan nan nan nan nan nan nan nan nan nan nan nan nan nan nan nan
253 252 252 251 251 251 249 245 241 239 nan nan 253 256 261 266 269 270 272 271 267 265 265 265 267 nan nan nan nan nan nan nan nan nan nan nan 256 nan nan nan nan nan nan nan nan nan nan nan nan nan nan nan nan nan nan nan nan nan nan nan nan nan nan nan nan nan nan nan nan nan nan nan nan nan nan nan nan nan nan nan nan nan nan nan nan
264 263 264 265 264 264 263 262 nan nan nan nan nan nan 264 266 nan nan 270 271 272 nan nan nan nan nan nan nan nan nan nan nan nan nan nan nan nan nan nan nan nan nan nan nan nan nan nan nan nan nan nan nan nan nan nan nan nan nan nan nan nan nan nan nan nan nan nan nan nan nan nan nan nan nan nan nan nan nan nan nan nan nan nan nan nan
nan nan nan nan nan nan nan nan nan nan nan nan nan nan nan nan nan nan nan nan 269 270 nan nan nan nan nan nan nan nan nan nan nan nan nan nan nan nan nan nan nan nan nan nan nan nan nan nan nan nan nan nan nan nan nan nan nan nan nan nan nan nan nan nan nan nan nan nan nan nan nan nan nan nan nan nan nan nan nan nan nan nan nan nan nan
nan nan nan nan nan nan nan nan nan nan nan nan nan nan nan nan nan nan nan nan nan nan nan nan nan nan nan nan nan nan nan nan nan nan nan nan nan nan nan nan nan nan nan nan nan nan nan nan nan nan nan nan nan nan nan nan nan nan nan nan nan nan nan nan nan nan nan nan nan nan nan nan nan nan nan nan nan nan nan nan nan nan nan nan nan
nan nan nan nan nan nan nan nan nan nan nan nan nan nan nan nan nan nan nan nan nan nan nan nan nan nan nan nan nan nan nan nan nan nan nan nan nan nan nan nan nan nan nan nan nan nan nan nan nan nan nan nan nan nan nan nan nan nan nan nan nan nan nan nan nan nan nan nan nan nan nan nan nan nan nan nan nan nan nan nan nan nan nan nan nan
nan nan nan nan nan nan nan nan nan nan nan nan nan nan nan nan nan nan nan nan nan nan nan nan nan nan nan nan nan nan nan nan nan nan nan nan nan nan nan nan nan nan nan nan nan nan nan nan nan nan nan nan nan nan nan nan nan nan nan nan nan nan nan nan nan nan nan nan nan nan nan nan nan nan nan nan nan nan nan nan nan nan nan nan nan
nan nan nan nan nan nan nan nan nan nan nan nan nan nan nan nan nan nan nan nan nan nan nan nan nan nan nan nan nan nan nan nan nan nan nan nan nan nan nan nan nan nan nan nan nan nan nan nan nan nan nan nan nan nan nan nan nan nan nan nan nan nan nan nan nan nan nan nan nan nan nan nan nan nan nan nan nan nan nan nan nan nan nan nan nan
nan nan nan nan nan nan nan nan nan nan nan nan nan nan nan nan nan nan nan nan nan nan nan nan nan nan nan nan nan nan nan nan nan nan nan nan nan nan nan nan nan nan nan nan nan nan nan nan nan nan nan nan nan nan nan nan nan nan nan nan nan nan nan nan nan nan nan nan nan nan nan nan nan nan nan nan nan nan nan nan nan nan nan nan nan
nan nan nan nan nan nan nan nan nan nan nan nan nan nan nan nan nan nan nan nan nan nan nan nan nan nan nan nan nan nan nan nan nan nan nan nan nan nan nan nan nan nan nan nan nan nan nan nan nan nan nan nan nan nan nan nan nan nan nan nan nan nan nan nan nan nan nan nan nan nan nan nan nan nan nan nan nan nan nan nan nan nan nan nan nan
nan nan 264 nan nan nan nan nan nan nan nan nan nan nan nan nan nan nan nan nan nan nan nan nan nan nan nan nan nan nan nan nan nan nan nan nan nan nan nan nan nan nan nan nan nan nan nan nan nan nan nan nan nan nan nan nan nan nan nan nan nan nan nan nan nan nan nan nan nan nan nan nan nan nan nan nan nan nan nan nan nan nan nan nan nan
nan nan nan nan nan nan nan nan nan nan nan nan nan nan nan nan nan nan nan nan nan nan nan nan nan nan nan nan nan nan nan nan nan nan nan nan nan nan nan nan nan nan nan nan nan nan nan nan nan nan nan nan nan nan nan nan nan nan nan nan nan nan nan nan nan nan nan nan nan nan nan nan nan nan nan nan nan nan nan nan nan nan nan nan nan
nan nan nan nan nan nan nan nan nan nan nan nan nan nan nan nan nan nan nan nan nan nan nan nan nan nan nan nan nan nan nan nan nan nan nan nan nan nan nan nan nan nan nan nan nan nan nan nan nan nan nan nan nan nan nan nan nan nan nan nan nan nan nan nan nan nan nan nan nan nan nan nan nan nan nan nan nan nan nan nan nan nan nan nan nan
nan nan nan nan nan nan nan nan nan nan nan nan nan nan nan nan nan nan nan nan nan nan nan nan nan nan nan nan nan nan nan nan nan nan nan nan nan nan nan nan nan nan nan nan nan nan nan nan nan nan nan nan nan nan nan nan nan nan nan nan nan nan nan nan nan nan nan nan nan nan nan nan nan nan nan nan nan nan nan nan nan nan nan nan nan
nan nan nan nan nan nan nan nan nan nan nan nan nan nan nan nan nan nan nan nan nan nan nan nan nan nan nan nan nan nan nan nan nan nan nan nan nan nan nan nan nan nan nan nan nan nan nan nan nan nan nan nan nan nan nan nan nan nan nan nan nan nan nan nan nan nan nan nan nan nan nan nan nan nan nan nan nan nan nan nan nan nan nan nan nan
nan nan nan nan nan nan nan nan nan nan nan nan nan nan nan nan nan nan nan nan nan nan nan nan nan nan nan nan nan nan nan nan nan nan nan nan nan nan nan nan nan nan nan nan nan nan nan nan nan nan nan nan nan nan nan nan nan nan nan nan nan nan nan nan nan nan nan nan nan nan nan nan nan nan nan nan nan nan nan nan nan nan nan nan nan
nan nan nan nan nan nan nan nan nan nan nan nan nan nan nan nan nan nan nan nan nan nan nan nan nan nan nan nan nan nan nan nan nan nan nan nan nan nan nan nan nan nan nan nan nan nan nan nan nan nan nan nan nan nan nan nan nan nan nan nan nan nan nan nan nan nan nan nan nan nan nan nan nan nan nan nan nan nan nan nan nan nan nan nan nan
nan nan nan nan nan nan nan nan nan nan nan nan nan nan nan nan nan nan nan nan nan nan nan nan nan nan nan nan nan nan nan nan nan nan nan nan nan nan nan nan nan nan nan nan nan nan nan nan nan nan nan nan nan nan nan nan nan nan nan nan nan nan nan nan nan nan nan nan nan nan nan nan nan nan nan nan nan nan nan nan nan nan nan nan nan
nan nan nan nan nan nan nan nan nan nan nan nan nan nan nan nan nan nan nan nan nan nan nan nan nan nan nan nan nan nan nan nan nan nan nan nan nan nan nan nan nan nan nan nan nan nan nan nan nan nan nan nan nan nan nan nan nan nan nan nan nan nan nan nan nan nan nan nan nan nan nan nan nan nan nan nan nan nan nan nan nan nan nan nan nan
nan nan nan nan nan nan nan nan nan nan nan nan nan nan nan nan nan nan nan nan nan nan nan nan nan nan nan nan nan nan nan nan nan nan nan nan nan nan nan nan nan nan nan nan nan nan nan nan nan nan nan nan nan nan nan nan nan nan nan nan nan nan nan nan nan nan nan nan nan nan nan nan nan nan nan nan nan nan nan nan nan nan nan nan nan
nan nan nan nan nan nan nan nan nan nan nan nan nan nan nan nan nan nan nan nan nan nan nan nan nan nan nan nan nan nan nan nan nan nan nan nan nan nan nan nan nan nan nan nan nan nan nan nan nan nan nan nan nan nan nan nan nan nan nan nan nan nan nan nan nan nan nan nan nan nan nan nan nan nan nan nan nan nan nan nan nan nan nan nan nan
nan nan nan nan nan nan nan nan nan nan nan nan nan nan nan nan nan nan nan nan nan nan nan nan nan nan nan nan nan nan nan nan nan nan nan nan nan nan nan nan nan nan nan nan nan nan nan nan nan nan nan nan nan nan nan nan nan nan nan nan nan nan nan nan nan nan nan nan nan nan nan nan nan nan nan nan nan nan nan nan nan nan nan nan nan
nan nan nan nan nan nan nan nan nan nan nan nan nan nan nan nan nan nan nan nan nan nan nan nan nan nan nan nan nan nan nan nan nan nan nan nan nan nan nan nan nan nan nan nan nan nan nan nan nan nan nan nan nan nan nan nan nan nan nan nan nan nan nan nan nan nan nan nan nan nan nan nan nan nan nan nan nan nan nan nan nan nan nan nan nan
nan nan nan nan nan nan nan nan nan nan nan nan nan nan nan nan nan nan nan nan nan nan nan nan nan nan nan nan nan nan nan nan nan nan nan nan nan nan nan nan nan nan nan nan nan nan nan nan nan nan nan nan nan nan nan nan nan nan nan nan nan nan nan nan nan nan nan nan nan nan nan nan nan nan nan nan nan nan nan nan nan nan nan nan nan
nan nan nan nan nan nan nan nan nan nan nan nan nan nan nan nan nan nan nan nan nan nan nan nan nan nan nan nan nan nan nan nan nan nan nan nan nan nan nan nan nan nan nan nan nan nan nan nan nan nan nan nan nan nan nan nan nan nan nan nan nan nan nan nan nan nan nan nan nan nan nan nan nan nan nan nan nan nan nan nan nan nan nan nan nan
nan nan nan nan nan nan nan nan nan nan nan nan nan nan nan nan nan nan nan nan nan nan nan nan nan nan nan nan nan nan nan nan nan nan nan nan nan nan nan nan nan nan nan nan nan nan nan nan nan nan nan nan nan nan nan nan nan nan nan nan nan nan nan nan nan nan nan nan nan nan nan nan nan nan nan nan nan nan nan nan nan nan nan nan nan
nan nan nan nan nan nan nan nan nan nan nan nan nan nan nan nan nan nan nan nan nan nan nan nan nan nan nan nan nan nan nan nan nan nan nan nan nan nan nan nan nan nan nan nan nan nan nan nan nan nan nan nan nan nan nan nan nan nan nan nan nan nan nan nan nan nan nan nan nan nan nan nan nan nan nan nan nan nan nan nan nan nan nan nan nan